TimeEDT,TemperatureF,Dew PointF,Humidity,Sea Level PressureIn,VisibilityMPH,Wind Direction,Wind SpeedMPH,Gust SpeedMPH,PrecipitationIn,Events,Conditions,WindDirDegrees,DateUTC
12:53 AM,42.1,26.1,53,29.96,10.0,West,4.6,-,N/A,,Clear,270,2013-03-13 04:53:00
1:53 AM,42.1,27.0,55,29.97,10.0,Calm,Calm,-,N/A,,Clear,0,2013-03-13 05:53:00
2:53 AM,42.1,27.0,55,29.97,10.0,WNW,3.5,-,N/A,,Clear,290,2013-03-13 06:53:00
3:53 AM,43.0,26.1,51,29.96,10.0,NW,15.0,25.3,N/A,,Clear,310,2013-03-13 07:53:00
4:53 AM,43.0,21.0,42,29.99,10.0,NW,5.8,-,N/A,,Clear,320,2013-03-13 08:53:00
5:53 AM,42.1,21.0,43,30.00,10.0,NW,6.9,-,N/A,,Clear,310,2013-03-13 09:53:00
6:53 AM,39.0,21.0,49,30.01,10.0,Calm,Calm,-,N/A,,Clear,0,2013-03-13 10:53:00
7:53 AM,37.0,23.0,57,30.02,10.0,Calm,Calm,-,N/A,,Clear,0,2013-03-13 11:53:00
8:53 AM,41.0,25.0,53,30.03,10.0,West,3.5,-,N/A,,Scattered Clouds,260,2013-03-13 12:53:00
9:53 AM,45.0,25.0,46,30.03,10.0,WSW,6.9,-,N/A,,Mostly Cloudy,250,2013-03-13 13:53:00
10:53 AM,46.9,21.9,37,30.04,10.0,West,13.8,21.9,N/A,,Mostly Cloudy,280,2013-03-13 14:53:00
11:53 AM,48.9,26.1,41,30.03,10.0,NW,16.1,26.5,N/A,,Mostly Cloudy,310,2013-03-13 15:53:00
12:53 PM,50.0,23.0,35,30.02,10.0,NW,13.8,21.9,N/A,,Clear,310,2013-03-13 16:53:00
1:53 PM,50.0,19.9,31,30.00,10.0,WNW,20.7,28.8,N/A,,Partly Cloudy,290,2013-03-13 17:53:00
2:53 PM,50.0,21.9,33,29.99,10.0,WNW,11.5,27.6,N/A,,Clear,290,2013-03-13 18:53:00
3:53 PM,48.9,21.0,33,30.00,10.0,NNW,12.7,19.6,N/A,,Clear,330,2013-03-13 19:53:00
4:53 PM,48.0,18.0,30,30.00,10.0,NW,18.4,27.6,N/A,,Clear,310,2013-03-13 20:53:00
5:53 PM,46.0,16.0,30,30.04,10.0,NW,17.3,23.0,N/A,,Clear,320,2013-03-13 21:53:00
6:53 PM,43.0,16.0,34,30.06,10.0,NW,17.3,26.5,N/A,,Clear,310,2013-03-13 22:53:00
7:53 PM,39.0,16.0,39,30.10,10.0,NW,6.9,-,N/A,,Clear,310,2013-03-13 23:53:00
8:53 PM,37.9,15.1,39,30.11,10.0,NW,8.1,-,N/A,,Clear,310,2013-03-14 00:53:00
9:53 PM,37.0,15.1,41,30.12,10.0,NNW,5.8,-,N/A,,Clear,340,2013-03-14 01:53:00
10:53 PM,36.0,12.9,39,30.13,10.0,NNW,10.4,21.9,N/A,,Clear,330,2013-03-14 02:53:00
11:53 PM,34.0,14.0,44,30.13,10.0,NNW,5.8,-,N/A,,Clear,340,2013-03-14 03:53:00